TimeCDT,TemperatureF,Dew PointF,Humidity,Sea Level PressureIn,VisibilityMPH,Wind Direction,Wind SpeedMPH,Gust SpeedMPH,PrecipitationIn,Events,Conditions,WindDirDegrees,DateUTC
12:54 AM,73.9,64.9,73,30.01,10.0,SSW,3.5,-,N/A,,Scattered Clouds,200,2013-06-16 05:54:00
1:54 AM,75.9,64.9,69,30.00,10.0,Calm,Calm,-,N/A,,Scattered Clouds,0,2013-06-16 06:54:00
2:54 AM,73.9,66.0,76,29.99,10.0,South,4.6,-,N/A,,Mostly Cloudy,190,2013-06-16 07:54:00
3:54 AM,73.9,66.0,76,29.99,10.0,South,4.6,-,N/A,,Scattered Clouds,190,2013-06-16 08:54:00
4:54 AM,73.9,66.0,76,29.99,10.0,South,8.1,-,N/A,,Scattered Clouds,180,2013-06-16 09:54:00
5:54 AM,75.0,64.9,71,30.00,10.0,South,6.9,-,N/A,,Overcast,180,2013-06-16 10:54:00
6:54 AM,75.0,66.0,73,30.01,10.0,South,4.6,-,N/A,,Overcast,180,2013-06-16 11:54:00
7:54 AM,77.0,66.0,69,30.04,10.0,Variable,6.9,-,N/A,,Overcast,0,2013-06-16 12:54:00
8:54 AM,81.0,68.0,65,30.04,10.0,SSW,8.1,-,N/A,,Mostly Cloudy,200,2013-06-16 13:54:00
9:54 AM,82.9,68.0,60,30.02,10.0,South,8.1,-,N/A,,Overcast,190,2013-06-16 14:54:00
10:54 AM,82.9,68.0,60,30.02,10.0,SW,5.8,-,N/A,,Overcast,230,2013-06-16 15:54:00
11:54 AM,84.9,69.1,59,30.01,10.0,WSW,3.5,-,N/A,,Overcast,240,2013-06-16 16:54:00
12:54 PM,86.0,70.0,59,30.00,10.0,WSW,6.9,-,N/A,,Mostly Cloudy,240,2013-06-16 17:54:00
1:54 PM,87.1,70.0,57,29.99,10.0,WNW,6.9,-,N/A,,Mostly Cloudy,290,2013-06-16 18:54:00
2:54 PM,86.0,68.0,55,29.98,10.0,Variable,3.5,-,N/A,,Mostly Cloudy,0,2013-06-16 19:54:00
3:54 PM,88.0,68.0,51,29.96,10.0,Variable,3.5,-,N/A,,Mostly Cloudy,0,2013-06-16 20:54:00
4:54 PM,89.1,66.9,48,29.95,10.0,Variable,3.5,-,N/A,,Mostly Cloudy,0,2013-06-16 21:54:00
5:54 PM,88.0,66.9,49,29.96,10.0,WSW,3.5,-,N/A,,Mostly Cloudy,250,2013-06-16 22:54:00
6:54 PM,84.0,71.1,65,29.95,10.0,South,16.1,-,N/A,,Mostly Cloudy,180,2013-06-16 23:54:00
7:54 PM,82.0,64.9,56,29.95,10.0,South,10.4,-,N/A,,Mostly Cloudy,190,2013-06-17 00:54:00
8:54 PM,80.1,66.9,64,29.95,10.0,South,3.5,-,N/A,,Mostly Cloudy,190,2013-06-17 01:54:00
9:54 PM,79.0,66.0,64,29.96,10.0,SE,5.8,-,N/A,,Scattered Clouds,140,2013-06-17 02:54:00
10:54 PM,75.9,66.0,71,29.96,10.0,SSW,4.6,-,N/A,,Scattered Clouds,200,2013-06-17 03:54:00
11:54 PM,75.9,69.1,79,29.96,10.0,SSW,5.8,-,N/A,,Scattered Clouds,200,2013-06-17 04:54:00